Location: Prestice
(49.5670°N, 13.3170°E)
Time: 01:42:23
(UTC+01:00)

ISS - Visible Passes

Search period start: 17 December 2017 00:00
Search period end: 27 December 2017 00:00
Orbit: 402 x 406 km, 51.6° (Epoch: 17 December)

Date Brightness Start Highest point End Pass type
(mag) Time Alt. Az. Time Alt. Az. Time Alt. Az.
17 Dec -0.2 17:50:06 10° WSW 17:50:44 10° SW 17:51:20 10° SW visible
18 Dec -0.7 16:56:27 10° W 16:58:42 17° SW 17:00:57 10° S visible
26 Dec -0.5 06:46:05 10° SSE 06:47:44 13° SE 06:49:23 10° ESE visible
